EHI
0 0 0 0 0 0 0 0 0 0 0 0 0 0 0 0 0 0 0 0 0 0 0 0 0 0 0 0 0 0 0 0 0 0 0 0 0 0
0 0 0 0 0 0 0 0 0 0 0 0 0 0 0 0 0 0 0 0 0 0 0 0 0 0 0 0 0 0 0 0 0 0 0 0 0 0
0 0 0 0 0 0 0 0 0 0 0 0 0 0 0 0 0 0 0 0 0 0 0 0 0 0 0 0 0 0 0 0 0 0 0 0 0 0
0 0 0 0 0 0 0 0 0 0 0 0 0 0 0 0 0 0 0 0 0 0 0 0 0 0 0 0 0 0 0 0 0 0 0 0 0 0
0 0 0 0 0 0 0 0 0 0 0 0 0 0 0 0 0 0 0 0 0 0 0 0 0 0 0 0 0 0 0 0 0 0 0 0 0 0
0 0 0 0 0 0 0 0 0 0 0 0 0 0 0 0 0 0 0 0 0 0 0 0 0 0 0 0 0 0 0 0 0 0 0 0 0 0
0 0 0 0 0 0 0 0 0 0 0 0 0 0 0 0 0 0 0 0 0 0 0 0 0 0 0 0 0 0 0 0 0 0 0 0 0 0
0 0 0 0 0 0 0 0 0 0 0 0 0 0 0 0 0 0 0 0 0 0 0 0 0 0 0 0 0 0 0 0 0 0 0 0 0 0
0 0 0 0 0 0 0 0 0 0 0 0 0 0 0 0 0 0 0 0 0 0 0 0 0 0 0 0 0 0 0 0 0 0 0 0 0 0
0 0 0 0 0 0 0 0 0 0 0 0 0 0 0 0 0 0 0 0 0 0 0 0 0 0 0 0 0 0 0 0 0 0 0 0 0 0
0 0 0 0 0 0 0 0 0 0 0 0 0 0 0 0 0 0 0 0 0 0 0 0 0 0 0 0 0 0 0 0 0 0 0 0 0 0
0 0 0 0 0 0 0 0 0 0 0 0 0 0 0 0 0 0 0 0 0 0 0 0 0 0 0 0 0 0 0 0 0 0 0 0 0 0
0 0 0 0 0 0 0 0 0 0 0 0 0 0 0 0 0 0 0 0 0 0 0 0 0 0 0 0 0 0 0 0 0 0 0 0 0 0
0 0 0 0 0 0 0 0 0 0 0 0 0 0 0 0 0 0 0 0 0 0 0 0 0 0 0 0 0 0 0 0 0 0 0 0 0 0
0 0 0 0 0 0 0 0 0 0 0 0 0 0 0 0 0 0 0 0 0 0 0 0 0 0 0 0 0 0 0 0 0 0 0 0 0 0
0 0 0 0 0 0 0 0 0 0 0 0 0 0 0 0 0 0 0 0 0 0 0 0 0 0 0 0 0 0 0 0 0 0 0 0 0 0
0 0 0 0 0 0 0 0 0 0 0 0 0 0 0 0 0 0 0 0 0 0 0 0 0 0 0 0 0 0 0 0 0 0 0 0 0 0
0 0 0 0 0 0 0 0 0 0 0 0 0 0 0 0 0 0 0 0 0 0 0 0 0 0 0 0 0 0 0 0 0 0 0 0 0 0
0 0 0 0 0 0 0 0 0 0 0 0 0 0 0 0 0 0 0 0 0 0 0 0 0 0 0 0 0 0 0 0 0 0 0 0 0 0
0 0 0 0 0 0 0 0 0 0 0 0 0 0 0 0 0 0 0 0 0 0 0 0 0 0 0 0 0 0 0 0 0 0 0 0 0 0
0 0 0 0 0 0 0 0 0 0 0 0 0 0 0 0 0 0 0 0 0 0 0 0 0 0 0 0 0 0 0 0 0 0 0 0 0 0
0 0 0 0 0 0 0 0 0 0 0 0 0 0 0 0 0 0 0 0 0 0 0 0 0 0 0 0 0 0 0 0 0 0 0 0 0 0
0 0 0 0 0 0 0 0 0 0 0 0 0 0 0 0 0 0 0 0 0 0 0 0 0 0 0 0 0 0 0 0 0 0 0 0 0 0
Wind_Speed
4 4 2 2 2 2 2 3 4 2 2 2 2 2 2 2 2 2 3 4 6 6 7 7 8 8 8 8 8 8 8 8 8 8 8 9 9 10
3 4 3 2 2 2 2 2 2 3 3 2 3 2 2 2 2 2 3 6 7 7 8 8 9 9 9 9 9 9 9 9 9 10 10 10 10 10
4 5 4 4 3 3 3 3 3 3 3 3 2 2 3 3 3 2 3 4 4 8 9 9 9 10 10 10 10 10 10 10 11 11 11 11 11 11
6 5 5 4 4 3 3 4 3 4 4 4 2 2 3 3 3 4 4 4 4 7 9 9 10 10 10 10 10 11 11 11 11 12 12 12 12 12
7 7 6 6 5 4 4 4 4 4 4 4 4 2 3 2 3 3 4 4 5 5 8 9 10 10 11 11 11 12 12 12 12 12 13 13 13 13
7 7 7 7 7 6 5 6 5 4 4 4 4 4 4 3 3 3 4 3 4 4 5 6 8 10 11 11 12 12 12 13 13 13 13 14 14 13
6 7 7 8 9 7 6 6 6 5 4 4 5 4 4 3 4 3 4 5 5 4 4 5 5 5 7 9 11 12 13 13 13 14 14 14 14 14
6 6 6 8 9 10 11 9 9 7 7 5 5 6 7 6 5 4 4 4 5 3 3 5 4 6 7 7 10 13 14 14 14 14 14 14 14 14
6 6 5 5 7 6 8 9 10 12 11 8 8 9 8 7 5 6 6 6 7 5 3 7 6 8 8 8 13 14 15 15 15 15 14 14 14 15
6 6 6 6 5 6 6 6 7 7 9 9 9 9 9 7 6 7 7 7 7 6 5 7 7 8 9 8 12 15 16 16 16 15 15 15 15 15
5 6 6 6 6 6 5 6 7 7 7 9 10 11 11 11 8 5 5 6 7 6 5 6 6 7 7 8 9 13 15 15 15 16 15 15 15 13
4 4 5 6 5 6 6 6 8 7 5 6 6 8 9 9 10 9 7 7 7 6 5 5 6 5 6 5 6 6 8 11 14 15 15 16 14 9
3 3 2 4 5 6 6 6 8 6 5 5 6 6 6 5 6 6 7 8 8 9 6 5 6 6 7 7 6 7 8 8 8 9 12 15 15 12
3 2 2 2 3 4 4 6 7 5 4 4 4 5 5 6 6 6 7 9 10 12 10 8 7 8 9 10 9 8 8 8 8 9 9 10 12 14
2 3 3 3 3 3 4 5 4 3 3 4 5 6 5 6 6 6 7 7 9 10 11 11 10 10 9 11 11 10 10 9 8 9 9 9 9 8
2 2 2 3 2 3 3 3 3 3 4 5 5 5 5 5 6 5 6 6 6 8 8 10 11 11 11 12 11 11 10 9 8 9 9 9 9 9
1 0 1 1 2 2 2 3 3 3 3 4 4 5 6 6 6 5 5 6 6 8 9 7 7 9 11 11 11 11 11 11 11 10 9 10 10 9
1 1 2 2 3 3 3 4 4 4 4 4 5 5 6 7 7 6 6 6 8 9 9 9 7 7 7 8 12 13 11 11 10 10 9 10 12 10
1 2 3 3 3 4 4 4 5 5 4 5 5 6 6 7 7 7 7 7 8 9 9 8 7 8 10 12 9 11 11 10 9 9 9 9 11 11
2 3 4 4 4 4 4 5 5 5 5 5 6 6 6 6 7 8 8 9 9 9 10 8 8 9 11 12 11 9 12 12 10 11 10 9 10 10
3 3 4 4 5 5 5 5 5 5 6 6 6 7 6 7 7 8 9 11 10 9 10 10 9 11 10 8 9 11 10 12 13 10 9 8 9 8
4 4 4 5 5 5 5 5 5 6 6 6 6 6 7 7 9 10 9 9 9 9 11 10 10 8 8 9 12 13 12 10 10 15 16 14 9 8
5 5 5 5 5 5 5 6 8 7 6 6 6 7 7 7 8 8 9 9 9 10 10 10 9 8 8 9 10 10 13 12 8 8 9 13 19 20
Wind_Direction
171 167 160 168 170 169 156 155 154 183 259 280 284 292 285 267 271 255 250 257 259 260 263 267 268 267 265 265 267 268 268 268 266 264 264 265 265 265
175 171 172 172 172 170 170 167 163 169 214 245 250 271 286 284 264 250 253 264 265 266 266 267 265 265 264 263 261 261 261 261 260 257 257 256 257 257
187 187 194 183 180 179 172 170 177 173 209 251 247 261 267 275 291 277 262 257 262 264 265 263 261 260 260 260 260 260 260 259 259 257 256 254 252 252
201 197 205 196 195 192 189 194 196 196 205 242 254 253 254 263 271 276 273 263 260 264 262 262 260 258 257 258 259 259 259 258 257 257 256 255 254 253
203 204 209 201 210 207 205 209 211 207 207 228 254 253 262 266 276 276 274 272 270 266 262 259 259 260 259 260 259 259 259 257 255 254 253 253 253 252
209 210 212 208 215 212 213 216 213 212 210 227 248 257 259 259 254 269 281 272 277 281 273 269 264 264 263 262 260 259 258 256 254 252 251 250 250 250
217 219 220 217 216 212 213 213 207 215 220 231 246 254 257 250 250 247 266 282 279 261 269 269 267 268 268 263 261 259 257 256 254 252 250 249 247 247
222 228 230 228 227 224 224 218 207 212 222 229 244 249 258 254 252 246 256 271 279 246 243 270 263 270 270 265 260 258 259 258 256 253 251 249 248 246
220 227 235 234 225 231 235 236 230 225 220 222 240 247 252 246 244 253 247 247 256 259 248 275 266 268 268 265 257 257 258 259 258 255 253 251 249 247
219 220 226 236 230 226 236 244 246 241 232 230 239 249 251 250 239 248 257 261 261 256 232 264 270 267 271 266 258 254 256 257 257 257 255 253 251 248
228 226 224 232 237 226 226 246 261 262 249 239 242 254 259 257 250 252 253 254 268 266 221 238 265 272 272 268 262 252 252 254 256 257 257 254 252 250
235 230 224 230 241 229 225 234 252 261 269 275 264 263 263 263 248 236 241 250 262 268 234 222 256 265 273 259 263 266 261 258 256 257 256 254 251 250
235 235 232 232 241 244 234 236 248 263 273 271 275 276 272 266 258 243 233 236 248 254 247 227 255 256 258 274 273 269 266 268 268 263 254 251 247 236
234 237 235 239 251 255 246 251 261 268 265 267 270 273 276 275 273 268 255 247 245 254 262 250 255 260 266 272 275 272 267 263 261 264 264 259 251 237
238 241 255 263 264 261 258 267 270 259 253 260 265 269 269 273 278 279 274 264 259 257 259 253 252 260 258 264 270 271 274 270 259 257 257 255 255 249
241 263 273 266 251 254 270 270 254 247 248 258 269 276 282 280 276 276 277 281 279 278 263 254 252 254 259 261 263 267 265 265 262 257 258 260 256 248
173 232 275 286 290 284 278 273 266 256 251 254 265 278 282 282 281 279 272 276 275 282 288 282 264 255 254 259 263 261 262 261 260 261 259 262 259 250
168 231 255 261 267 272 277 282 275 268 265 264 266 269 275 278 281 280 273 273 276 278 280 284 285 283 273 257 235 254 260 260 262 258 254 258 263 257
229 259 262 265 269 271 273 275 277 277 274 269 269 272 274 276 277 280 280 277 276 277 278 279 275 272 277 281 265 225 248 263 264 262 254 250 259 263
254 268 276 278 277 276 276 277 280 283 280 277 276 276 276 279 281 282 281 280 281 282 282 276 268 264 265 275 281 272 241 251 261 263 263 259 259 263
280 276 274 275 275 275 277 277 276 277 279 279 276 276 277 277 278 280 280 279 277 278 279 278 276 269 271 271 268 267 264 241 240 253 262 264 265 262
291 285 282 278 276 276 279 277 275 274 276 274 276 276 275 275 278 281 281 281 279 278 280 280 281 275 265 262 267 274 279 276 253 243 243 242 247 252
293 290 289 289 286 283 279 278 278 277 274 275 276 278 279 279 280 280 281 280 280 281 283 283 281 271 265 262 267 271 276 280 279 274 263 243 238 247